Weather History for KBPC - October, 2013

Change the Weather History Date:

Wednesday, October 9, 2013

  Actual Average (KBGD) Record (KBGD)
Temperature  
Mean Temperature 63 °F 63 °F  
Max Temperature 80 °F 75 °F 94 °F (1965)
Min Temperature 46 °F 51 °F 31 °F (1970)
Degree Days  
Heating Degree Days 2 5  
Month to date heating degree days 33  
Since 1 July heating degree days 61  
Cooling Degree Days 0 2  
Month to date cooling degree days 28  
Year to date cooling degree days 1813  
Growing Degree Days 13 (Base 50)    
Moisture  
Dew Point 39 °F    
Average Humidity 36    
Maximum Humidity 66    
Minimum Humidity 23    
Precipitation  
Precipitation 0.00 in 0.05 in 1.14 in (1985)
Month to date precipitation 0.62  
Year to date precipitation 19.01  
Snow  
Snow 0.00 in - T in (1970)
Month to date snowfall  
Since 1 July snowfall  
Since 1 September snowfall  
Snow Depth -    
Sea Level Pressure  
Sea Level Pressure 29.92 in    
Wind  
Wind Speed 15 mph (South)    
Max Wind Speed 28 mph    
Max Gust Speed 34 mph    
Visibility 10 miles    
Events      
T = Trace of Precipitation, MM = Missing Value Source: NWS Daily Summary

Daily Weather History Graph

Daily Weather History Graph

Search for Another Location

Airport or City:

Trip Planner

Search our weather history database for the weather conditions in past years. The results will help you decide how hot, cold, wet, or windy it might be!

Date:

Astronomy

Oct. 09, 2013 Rise Set
Actual Time 7:45 AM CDT 7:16 PM CDT
Civil Twilight 7:20 AM CDT 7:41 PM CDT
Nautical Twilight 6:50 AM CDT 8:11 PM CDT
Astronomical Twilight 6:20 AM CDT 8:40 PM CDT
Moon 12:35 PM CDT (10/9) 11:00 PM CDT (10/9)
Length of Visible Light 12h 21m
Length of Day
11h 30m
Waxing Crescent, 25% of the Moon is Illuminated
Oct 9
Waxing Crescent
Oct 11
First Quarter
Oct 18
Full
Oct 26
Last Quarter
Nov 3
New

Hourly Weather History & Observations

Time (CDT) Temp. Dew Point Humidity Pressure Visibility Wind Dir Wind Speed Gust Speed Precip Events Conditions
12:15 AM 62.6 °F 35.6 °F 37% 29.89 in 10.0 mi SSE 20.7 mph 28.8 mph N/A   Clear
12:35 AM 62.6 °F 35.6 °F 37% 29.89 in 10.0 mi South 19.6 mph 29.9 mph N/A   Clear
12:55 AM 62.6 °F 35.6 °F 37% 29.89 in 10.0 mi South 21.9 mph 28.8 mph N/A   Clear
1:15 AM 62.6 °F 35.6 °F 37% 29.89 in 10.0 mi South 19.6 mph 29.9 mph N/A   Clear
1:35 AM 62.6 °F 35.6 °F 37% 29.89 in 10.0 mi South 16.1 mph 25.3 mph N/A   Clear
1:55 AM 62.6 °F 35.6 °F 37% 29.90 in 10.0 mi South 11.5 mph - N/A   Clear
2:15 AM 62.6 °F 35.6 °F 37% 29.91 in 10.0 mi SSW 8.1 mph - N/A   Clear
2:35 AM 60.8 °F 35.6 °F 39% 29.90 in 10.0 mi SSW 11.5 mph - N/A   Clear
2:55 AM 60.8 °F 35.6 °F 39% 29.91 in 10.0 mi SSW 9.2 mph - N/A   Clear
3:15 AM 62.6 °F 35.6 °F 37% 29.91 in 10.0 mi SSW 10.4 mph 17.3 mph N/A   Clear
3:35 AM 62.6 °F 35.6 °F 37% 29.90 in 10.0 mi SSW 11.5 mph 17.3 mph N/A   Clear
3:55 AM 60.8 °F 35.6 °F 39% 29.90 in 10.0 mi South 8.1 mph - N/A   Clear
4:15 AM 60.8 °F 35.6 °F 39% 29.90 in 10.0 mi SSW 4.6 mph - N/A   Clear
4:35 AM 60.8 °F 35.6 °F 39% 29.91 in 10.0 mi SSW 5.8 mph - N/A   Clear
4:55 AM 59.0 °F 35.6 °F 42% 29.92 in 10.0 mi WSW 12.7 mph - N/A   Clear
5:15 AM 60.8 °F 35.6 °F 39% 29.91 in 10.0 mi SSW 10.4 mph 18.4 mph N/A   Clear
5:35 AM 60.8 °F 35.6 °F 39% 29.92 in 10.0 mi SW 6.9 mph - N/A   Clear
5:55 AM 57.2 °F 35.6 °F 44% 29.92 in 10.0 mi South 6.9 mph - N/A   Clear
6:15 AM 53.6 °F 35.6 °F 51% 29.93 in 10.0 mi Calm Calm - N/A   Clear
6:35 AM 55.4 °F 37.4 °F 51% 29.93 in 10.0 mi Calm Calm - N/A   Clear
6:55 AM 55.4 °F 35.6 °F 47% 29.94 in 10.0 mi South 4.6 mph - N/A   Clear
7:15 AM 53.6 °F 37.4 °F 54% 29.94 in 10.0 mi SSE 4.6 mph - N/A   Clear
7:35 AM 46.4 °F 35.6 °F 66% 29.95 in 10.0 mi Calm Calm - N/A   Clear
7:55 AM 51.8 °F 37.4 °F 58% 29.94 in 10.0 mi South 3.5 mph - N/A   Clear
8:15 AM 50.0 °F 37.4 °F 62% 29.94 in 10.0 mi South 4.6 mph - N/A   Clear
8:35 AM 51.8 °F 37.4 °F 58% 29.95 in 10.0 mi Calm Calm - N/A   Clear
8:55 AM 55.4 °F 39.2 °F 54% 29.97 in 10.0 mi Calm Calm - N/A   Clear
9:15 AM 57.2 °F 41.0 °F 55% 29.97 in 10.0 mi SSE 5.8 mph - N/A   Clear
9:35 AM 60.8 °F 39.2 °F 45% 29.97 in 10.0 mi South 9.2 mph - N/A   Clear
9:55 AM 64.4 °F 37.4 °F 37% 29.97 in 10.0 mi South 12.7 mph - N/A   Clear
10:15 AM 66.2 °F 37.4 °F 35% 29.97 in 10.0 mi South 11.5 mph - N/A   Clear
10:35 AM 68.0 °F 37.4 °F 33% 29.97 in 10.0 mi SSW 15.0 mph 20.7 mph N/A   Clear
10:55 AM 69.8 °F 37.4 °F 31% 29.97 in 10.0 mi South 16.1 mph 20.7 mph N/A   Clear
11:15 AM 69.8 °F 37.4 °F 31% 29.97 in 10.0 mi South 15.0 mph 21.9 mph N/A   Clear
11:35 AM 71.6 °F 37.4 °F 29% 29.97 in 10.0 mi SSW 12.7 mph - N/A   Clear
11:55 AM 73.4 °F 37.4 °F 27% 29.96 in 10.0 mi South 12.7 mph 19.6 mph N/A   Clear
12:15 PM 73.4 °F 39.2 °F 29% 29.96 in 10.0 mi South 15.0 mph - N/A   Clear
12:35 PM 77.0 °F 39.2 °F 26% 29.95 in 10.0 mi SSW 13.8 mph - N/A   Clear
12:55 PM 77.0 °F 41.0 °F 28% 29.95 in 10.0 mi South 15.0 mph 20.7 mph N/A   Clear
1:15 PM 77.0 °F 41.0 °F 28% 29.94 in 10.0 mi South 17.3 mph 23.0 mph N/A   Clear
1:35 PM 78.8 °F 41.0 °F 26% 29.93 in 10.0 mi South 20.7 mph 25.3 mph N/A   Clear
1:55 PM 80.6 °F 41.0 °F 24% 29.92 in 10.0 mi South 16.1 mph 23.0 mph N/A   Clear
2:15 PM 80.6 °F 41.0 °F 24% 29.91 in 10.0 mi South 18.4 mph 24.2 mph N/A   Clear
2:35 PM 80.6 °F 41.0 °F 24% 29.91 in 10.0 mi South 18.4 mph 23.0 mph N/A   Clear
2:55 PM 80.6 °F 42.8 °F 26% 29.90 in 10.0 mi South 17.3 mph 24.2 mph N/A   Clear
3:15 PM 78.8 °F 41.0 °F 26% 29.90 in 10.0 mi SSE 13.8 mph 21.9 mph N/A   Clear
3:35 PM 80.6 °F 41.0 °F 24% 29.90 in 10.0 mi SSE 21.9 mph 26.5 mph N/A   Clear
3:55 PM 80.6 °F 41.0 °F 24% 29.90 in 10.0 mi SSE 19.6 mph 25.3 mph N/A   Clear
4:15 PM 80.6 °F 42.8 °F 26% 29.90 in 10.0 mi South 18.4 mph 27.6 mph N/A   Clear
4:35 PM 80.6 °F 41.0 °F 24% 29.89 in 10.0 mi South 20.7 mph 27.6 mph N/A   Clear
4:55 PM 80.6 °F 41.0 °F 24% 29.89 in 10.0 mi SSE 20.7 mph 29.9 mph N/A   Clear
5:15 PM 80.6 °F 41.0 °F 24% 29.88 in 10.0 mi SSE 19.6 mph 25.3 mph N/A   Clear
5:35 PM 80.6 °F 39.2 °F 23% 29.88 in 10.0 mi South 19.6 mph 29.9 mph N/A   Clear
5:55 PM 78.8 °F 41.0 °F 26% 29.87 in 10.0 mi SSE 24.2 mph 29.9 mph N/A   Clear
6:15 PM 78.8 °F 39.2 °F 24% 29.87 in 10.0 mi SSE 21.9 mph 31.1 mph N/A   Clear
6:35 PM 77.0 °F 41.0 °F 28% 29.87 in 10.0 mi SSE 18.4 mph 29.9 mph N/A   Clear
6:55 PM 75.2 °F 41.0 °F 29% 29.87 in 10.0 mi SSE 23.0 mph 31.1 mph N/A   Clear
7:15 PM 73.4 °F 41.0 °F 31% 29.87 in 10.0 mi SSE 20.7 mph 26.5 mph N/A   Clear
7:35 PM 71.6 °F 41.0 °F 33% 29.88 in 10.0 mi SSE 18.4 mph 25.3 mph N/A   Clear
7:55 PM 71.6 °F 41.0 °F 33% 29.88 in 10.0 mi SSE 20.7 mph 29.9 mph N/A   Clear
8:15 PM 71.6 °F 42.8 °F 35% 29.88 in 10.0 mi SSE 23.0 mph 28.8 mph N/A   Clear
8:35 PM 69.8 °F 42.8 °F 38% 29.88 in 10.0 mi SSE 19.6 mph 29.9 mph N/A   Clear
8:55 PM 69.8 °F 42.8 °F 38% 29.89 in 10.0 mi SSE 23.0 mph 28.8 mph N/A   Clear
9:15 PM 69.8 °F 41.0 °F 35% 29.89 in 10.0 mi SSE 21.9 mph 29.9 mph N/A   Clear
9:35 PM 69.8 °F 41.0 °F 35% 29.90 in 10.0 mi SSE 20.7 mph 29.9 mph N/A   Clear
9:55 PM 69.8 °F 41.0 °F 35% 29.91 in 10.0 mi SSE 21.9 mph 29.9 mph N/A   Clear
10:15 PM 68.0 °F 41.0 °F 37% 29.91 in 10.0 mi SSE 21.9 mph 31.1 mph N/A   Clear
10:35 PM 68.0 °F 41.0 °F 37% 29.91 in 10.0 mi SSE 23.0 mph 31.1 mph N/A   Clear
10:55 PM 68.0 °F 42.8 °F 40% 29.91 in 10.0 mi SSE 20.7 mph 32.2 mph N/A   Clear
11:15 PM 66.2 °F 42.8 °F 43% 29.91 in 10.0 mi SSE 24.2 mph 29.9 mph N/A   Clear
11:35 PM 66.2 °F 42.8 °F 43% 29.92 in 10.0 mi South 24.2 mph 32.2 mph N/A   Clear
11:55 PM 66.2 °F 44.6 °F 46% 29.91 in 10.0 mi SSE 27.6 mph 34.5 mph N/A   Clear